User: anonymous   Login
Location: Morgantown
(40.9734°N, 80.6323°W)
Time: 02:16:41
(UTC+00:00)
Language:

FengYun 1-2 T - Orbit

View from above orbital plane
View from above orbital plane
View from above satellite
View from above satellite

Ground track
Ground track

The orbit data is extracted from the following two-line orbital elements,

1 20855U 90081T   21018.45906458 -.00000139  00000-0 -55613-4 0  9990
2 20855  98.7055  32.5155 0023362 320.6839 202.0739 14.08687148561107
Epoch (UTC): 18 January 2021 11:01:03
Eccentricity: 0.0023362
inclination: 98.7055°
perigee height: 847 km
apogee height: 881 km
right ascension of ascending node: 32.5155°
argument of perigee: 320.6839°
revolutions per day: 14.08687148
mean anomaly at epoch: 202.0739°
orbit number at epoch: 56110

The dashed part of the orbit path shows where the satellite is in the earth's shadow,  

DLR